Weather History for Fort Myers, FL

Change the Weather History Date:

Monday, April 15, 2013

  Actual Average Record
Temperature  
Mean Temperature 79 °F 74 °F  
Max Temperature 91 °F 85 °F 91 °F (1981)
Min Temperature 66 °F 63 °F 49 °F (1963)
Degree Days  
Heating Degree Days 0 0  
Month to date heating degree days 0 0  
Since 1 July heating degree days 201 284  
Cooling Degree Days 14 9  
Month to date cooling degree days 166 119  
Year to date cooling degree days 548 480  
Growing Degree Days 28 (Base 50)    
Moisture  
Dew Point 67 °F    
Average Humidity 69    
Maximum Humidity 87    
Minimum Humidity 44    
Precipitation  
Precipitation 0.10 in 0.07 in 2.36 in (1930)
Month to date precipitation 1.44 1.13  
Year to date precipitation 4.70 8.10  
Sea Level Pressure  
Sea Level Pressure 29.99 in    
Wind  
Wind Speed 6 mph (ESE)    
Max Wind Speed 15 mph    
Max Gust Speed 20 mph    
Visibility 10 miles    
Events Rain , Thunderstorm    
T = Trace of Precipitation, MM = Missing Value Source: NWS Daily Summary

Daily Weather History Graph

Daily Weather History Graph

Search for Another Location

Airport:

Trip Planner

Search our weather history database for the weather conditions in past years. The results will help you decide how hot, cold, wet, or windy it might be!

Date:

Astronomy

Apr. 15, 2013 Rise Set
Actual Time 7:03 AM EDT 7:51 PM EDT
Civil Twilight 6:39 AM EDT 8:15 PM EDT
Nautical Twilight 6:11 AM EDT 8:43 PM EDT
Astronomical Twilight 5:43 AM EDT 9:11 PM EDT
Moon 10:44 AM EDT (4/15) No Moon Set
Length of Visible Light 13h 35m
Length of Day
12h 48m
Waxing Crescent, 24% of the Moon is Illuminated
Apr 15
Waxing Crescent
Apr 18
First Quarter
Apr 25
Full
May 2
Last Quarter
May 9
New

Hourly Weather History & Observations

Time (EDT) Temp. Heat Index Dew Point Humidity Pressure Visibility Wind Dir Wind Speed Gust Speed Precip Events Conditions
12:53 AM 78.1 °F - 72.0 °F 81% 29.98 in 10.0 mi North 4.6 mph - N/A   Overcast
1:53 AM 73.0 °F - 63.0 °F 71% 29.98 in 8.0 mi NNE 8.1 mph - N/A   Overcast
2:53 AM 69.1 °F - 63.0 °F 81% 29.97 in 10.0 mi NE 6.9 mph - 0.09 in   Overcast
3:28 AM 69.8 °F - 62.6 °F 78% 29.97 in 10.0 mi ENE 8.1 mph - N/A   Overcast
3:53 AM 68.0 °F - 63.0 °F 84% 29.98 in 10.0 mi ENE 5.8 mph - N/A   Overcast
4:53 AM 68.0 °F - 62.1 °F 81% 29.96 in 10.0 mi ENE 9.2 mph - N/A   Partly Cloudy
5:28 AM 68.0 °F - 62.6 °F 83% 29.96 in 10.0 mi ENE 9.2 mph - N/A Thunderstorm Overcast
5:53 AM 66.9 °F - 63.0 °F 87% 29.97 in 10.0 mi East 4.6 mph - 0.00 in Rain Light Rain
6:53 AM 66.9 °F - 63.0 °F 87% 29.98 in 10.0 mi East 3.5 mph - 0.01 in   Clear
8:53 AM 72.0 °F - 64.0 °F 76% 30.00 in 10.0 mi East 5.8 mph - N/A   Clear
9:53 AM 77.0 °F - 66.0 °F 69% 30.00 in 10.0 mi ESE 6.9 mph - N/A   Clear
10:53 AM 82.9 °F 86.5 °F 69.1 °F 63% 30.00 in 10.0 mi South 5.8 mph - N/A   Clear
11:53 AM 84.9 °F 89.4 °F 70.0 °F 61% 30.00 in 10.0 mi SSE 5.8 mph - N/A   Clear
12:53 PM 87.1 °F 92.0 °F 70.0 °F 57% 29.99 in 10.0 mi Variable 4.6 mph - N/A   Partly Cloudy
1:53 PM 89.1 °F 93.7 °F 69.1 °F 52% 29.99 in 10.0 mi WSW 4.6 mph - N/A   Clear
2:53 PM 91.0 °F 95.2 °F 68.0 °F 47% 29.97 in 10.0 mi SSW 6.9 mph - N/A   Partly Cloudy
3:53 PM 90.0 °F 92.4 °F 66.0 °F 45% 29.94 in 10.0 mi SW 9.2 mph - N/A   Clear
4:53 PM 91.0 °F 94.3 °F 66.9 °F 45% 29.94 in 10.0 mi SW 10.4 mph - N/A   Clear
5:53 PM 88.0 °F 92.1 °F 69.1 °F 53% 29.96 in 10.0 mi West 11.5 mph - N/A   Clear
6:53 PM 84.9 °F 88.8 °F 69.1 °F 59% 29.99 in 10.0 mi WSW 9.2 mph - N/A   Mostly Cloudy
7:53 PM 84.0 °F 88.4 °F 70.0 °F 63% 30.02 in 10.0 mi SSW 3.5 mph - N/A   Overcast
8:11 PM 82.4 °F 86.3 °F 69.8 °F 66% 30.02 in 10.0 mi East 10.4 mph 17.3 mph N/A   Overcast
8:53 PM 80.1 °F 82.7 °F 68.0 °F 67% 30.04 in 10.0 mi SE 5.8 mph - N/A   Mostly Cloudy
9:53 PM 78.1 °F - 68.0 °F 71% 30.07 in 10.0 mi ENE 6.9 mph - N/A   Overcast
10:53 PM 75.0 °F - 69.1 °F 82% 30.08 in 10.0 mi East 3.5 mph - N/A   Clear
11:53 PM 73.9 °F - 69.1 °F 85% 30.07 in 10.0 mi Calm Calm - N/A   Clear